| time (UTC) | temp F | wind direction | speed MPH | gust MPH | rain 1hr in | rain 24hr in | rain mn in | humidity % | barometer mb |
| 20260906083003 | 81 | 60 | 12.0 | 0.0 | 0.00 | 0.00 | 0.00 | 50 | 1022.0 |
| 20260906074503 | 77 | 50 | 9.0 | 0.0 | 0.00 | 0.00 | 0.00 | 57 | 1021.0 |
| 20260906073003 | 77 | 50 | 9.0 | 0.0 | 0.00 | 0.00 | 0.00 | 57 | 1021.0 |
| 20260906064503 | 73 | 40 | 8.0 | 0.0 | 0.00 | 0.00 | 0.00 | 64 | 1021.0 |
| 20260906060003 | 72 | 40 | 8.0 | 0.0 | 0.00 | 0.00 | 0.00 | 73 | 1020.0 |
| 20260906051503 | 70 | 30 | 7.0 | 0.0 | 0.00 | 0.00 | 0.00 | 77 | 1020.0 |
| 20260906044503 | 72 | 30 | 8.0 | 0.0 | 0.00 | 0.00 | 0.00 | 73 | 1020.0 |
| 20260906043003 | 72 | 30 | 8.0 | 0.0 | 0.00 | 0.00 | 0.00 | 73 | 1020.0 |
| 20260906034504 | 72 | 40 | 9.0 | 0.0 | 0.00 | 0.00 | 0.00 | 73 | 1019.0 |
| 20260906033004 | 72 | 40 | 9.0 | 0.0 | 0.00 | 0.00 | 0.00 | 73 | 1019.0 |
| 20260906031503 | 72 | 40 | 8.0 | 0.0 | 0.00 | 0.00 | 0.00 | 73 | 1019.0 |
| 20260906030004 | 72 | 40 | 8.0 | 0.0 | 0.00 | 0.00 | 0.00 | 73 | 1019.0 |
| 20260906024503 | 72 | 40 | 9.0 | 0.0 | 0.00 | 0.00 | 0.00 | 78 | 1019.0 |
| 20260906023004 | 72 | 40 | 9.0 | 0.0 | 0.00 | 0.00 | 0.00 | 78 | 1019.0 |
| 20260906021503 | 73 | 40 | 9.0 | 0.0 | 0.00 | 0.00 | 0.00 | 78 | 1019.0 |
| 20260906014503 | 73 | 30 | 8.0 | 0.0 | 0.00 | 0.00 | 0.00 | 83 | 1019.0 |
| 20260906010004 | 75 | 10 | 9.0 | 0.0 | 0.00 | 0.00 | 0.00 | 83 | 1019.0 |
| 20260906004503 | 75 | 20 | 6.0 | 0.0 | 0.00 | 0.00 | 0.00 | 88 | 1019.0 |
| 20260906001504 | 75 | 20 | 6.0 | 0.0 | 0.00 | 0.00 | 0.00 | 88 | 1019.0 |
| 20260905234503 | 75 | 30 | 7.0 | 0.0 | 0.00 | 0.00 | 0.00 | 94 | 1019.0 |
| 20260905224503 | 77 | 40 | 7.0 | 0.0 | 0.00 | 0.00 | 0.00 | 88 | 1018.0 |
| 20260905223004 | 77 | 40 | 7.0 | 0.0 | 0.00 | 0.00 | 0.00 | 88 | 1018.0 |
| 20260905221503 | 79 | 80 | 5.0 | 0.0 | 0.00 | 0.00 | 0.00 | 88 | 1018.0 |
| 20260905220005 | 79 | 80 | 5.0 | 0.0 | 0.00 | 0.00 | 0.00 | 88 | 1018.0 |
| 20260905214504 | 79 | 90 | 6.0 | 0.0 | 0.00 | 0.00 | 0.00 | 83 | 1018.0 |
| 20260905213003 | 79 | 90 | 6.0 | 0.0 | 0.00 | 0.00 | 0.00 | 83 | 1018.0 |
| 20260905211503 | 79 | 120 | 6.0 | 0.0 | 0.00 | 0.00 | 0.00 | 83 | 1018.0 |
| 20260905203003 | 81 | 100 | 8.0 | 0.0 | 0.00 | 0.00 | 0.00 | 78 | 1017.0 |
| 20260905193004 | 81 | 90 | 6.0 | 0.0 | 0.00 | 0.00 | 0.00 | 78 | 1017.0 |
| 20260905191503 | 81 | 110 | 6.0 | 0.0 | 0.00 | 0.00 | 0.00 | 74 | 1016.0 |
| 20260905190004 | 82 | 120 | 5.0 | 0.0 | 0.00 | 0.00 | 0.00 | 74 | 1016.0 |
| 20260905174503 | 84 | 120 | 5.0 | 0.0 | 0.00 | 0.00 | 0.00 | 70 | 1015.0 |
| 20260905170004 | 86 | 140 | 5.0 | 0.0 | 0.00 | 0.00 | 0.00 | 66 | 1015.0 |
| 20260905161503 | 86 | 150 | 6.0 | 0.0 | 0.00 | 0.00 | 0.00 | 70 | 1015.0 |
| 20260905160004 | 86 | 150 | 6.0 | 0.0 | 0.00 | 0.00 | 0.00 | 70 | 1015.0 |
| 20260905154503 | 86 | 150 | 6.0 | 0.0 | 0.00 | 0.00 | 0.00 | 66 | 1015.0 |
| 20260905151503 | 86 | 160 | 6.0 | 0.0 | 0.00 | 0.00 | 0.00 | 66 | 1015.0 |
| 20260905150004 | 86 | 160 | 6.0 | 0.0 | 0.00 | 0.00 | 0.00 | 66 | 1015.0 |
| 20260905144503 | 86 | 150 | 6.0 | 0.0 | 0.00 | 0.00 | 0.00 | 66 | 1015.0 |
| 20260905141503 | 86 | 160 | 6.0 | 0.0 | 0.00 | 0.00 | 0.00 | 66 | 1016.0 |
| 20260905140004 | 86 | 160 | 6.0 | 0.0 | 0.00 | 0.00 | 0.00 | 66 | 1016.0 |
| 20260905130004 | 84 | 140 | 6.0 | 0.0 | 0.00 | 0.00 | 0.00 | 65 | 1016.0 |
| 20260905124503 | 82 | 170 | 5.0 | 0.0 | 0.00 | 0.00 | 0.00 | 69 | 1016.0 |
| 20260905121503 | 82 | 150 | 3.0 | 0.0 | 0.00 | 0.00 | 0.00 | 74 | 1016.0 |
| 20260905120004 | 82 | 150 | 3.0 | 0.0 | 0.00 | 0.00 | 0.00 | 74 | 1016.0 |
| 20260905114504 | 82 | 130 | 6.0 | 0.0 | 0.00 | 0.00 | 0.00 | 74 | 1016.0 |
| 20260905113003 | 82 | 130 | 6.0 | 0.0 | 0.00 | 0.00 | 0.00 | 74 | 1016.0 |
| 20260905111503 | 84 | 0 | 3.0 | 0.0 | 0.00 | 0.00 | 0.00 | 65 | 1016.0 |
| 20260905110003 | 84 | 0 | 3.0 | 0.0 | 0.00 | 0.00 | 0.00 | 65 | 1016.0 |
| 20260905104503 | 84 | 0 | 3.0 | 0.0 | 0.00 | 0.00 | 0.00 | 65 | 1016.0 |
| 20260905094502 | 82 | 70 | 5.0 | 0.0 | 0.00 | 0.00 | 0.00 | 65 | 1016.0 |
| 20260905093004 | 82 | 70 | 5.0 | 0.0 | 0.00 | 0.00 | 0.00 | 65 | 1016.0 |
| 20260905091504 | 81 | 30 | 6.0 | 0.0 | 0.00 | 0.00 | 0.00 | 65 | 1016.0 |
| 20260905090004 | 81 | 30 | 7.0 | 0.0 | 0.00 | 0.00 | 0.00 | 65 | 1016.0 |